Location: Muenchen
(48.1800°N, 11.5800°E)
Time: 22:20:31
(UTC+02:00)

Sich 1 Rocket - Visible Passes

Search period start: 18 August 2017 00:00
Search period end: 28 August 2017 00:00
Orbit: 616 x 653 km, 82.5° (Epoch: 18 August)

Date Brightness Start Highest point End Pass type
(mag) Time Alt. Az. Time Alt. Az. Time Alt. Az.
18 Aug 6.7 21:48:21 10° WSW 21:50:59 15° WNW 21:53:37 10° NNW visible
20 Aug 5.7 20:53:02 10° SW 20:57:01 33° WNW 21:01:02 10° N visible
21 Aug 7.4 05:22:59 10° NE 05:24:53 12° ENE 05:26:47 10° E visible
21 Aug 6.7 21:16:32 10° WSW 21:19:35 18° WNW 21:22:41 10° NNW visible
24 Aug 7.5 04:52:38 10° NE 04:53:28 10° ENE 04:54:19 10° ENE visible
24 Aug 6.7 20:44:49 10° WSW 20:48:12 22° WNW 20:51:39 10° NNW visible
25 Aug 6.8 05:12:57 10° NNE 05:16:13 19° ENE 05:19:27 10° ESE visible
25 Aug 7.4 21:09:12 10° W 21:10:54 12° WNW 21:12:37 10° NW visible
26 Aug 5.7 05:34:37 10° N 05:38:47 34° ENE 05:42:56 10° SE visible
